DateTimeUTC,F1_A11,F1_S11,BsB_S11,BsG_S11,BsR_S11,BbsB_S11,BbsG_S11,BbsR_S11,BaB_A11,BaG_A11,BaR_A11,Tu_S11,T_S11,Uu_S11,U_S11,P_S11,T1_A11
2021-10-05T17:00:00Z,00000200,20000000,,,,,,,0000.21,0000.13,0000.31,17.5,24.3,02.0,01.3,0669.2,30.9
2021-10-05T17:01:00Z,00000200,20000000,,,,,,,-000.27,-000.48,0000.36,17.5,24.3,02.0,01.3,0669.2,30.9
2021-10-05T17:02:00Z,00000200,20000000,,,,,,,-000.15,-000.24,-000.39,17.5,24.3,02.0,01.3,0669.2,31.0
2021-10-05T17:03:00Z,00000200,60000000,,,,,,,0000.55,0000.82,0000.13,17.6,24.3,02.0,01.3,0669.2,31.0
2021-10-05T17:04:00Z,00000200,41000000,0001.13,0000.10,-000.40,-000.04,-000.08,0000.00,0000.27,-000.01,0000.15,17.9,24.2,01.7,01.2,0670.2,30.9
2021-10-05T17:05:00Z,00000200,01000000,0000.68,0000.28,0000.10,-000.17,-000.23,0000.12,0000.43,0000.50,0000.50,17.9,24.2,01.9,01.3,0670.3,30.9
2021-10-05T17:06:00Z,00000200,01000000,0001.10,0000.42,0000.04,0000.06,-000.21,-000.01,0000.67,0000.07,0000.10,17.9,24.2,01.9,01.3,0670.3,31.0
2021-10-05T17:07:00Z,00000200,00000000,0000.89,0000.06,0000.27,0000.51,0000.10,0000.27,0000.08,0000.44,0000.76,17.9,24.2,02.0,01.4,0670.3,30.9
2021-10-05T17:08:00Z,00000200,00000000,0000.28,0000.07,0000.19,0000.36,0000.13,0000.24,0000.08,0000.22,-000.21,17.8,24.1,02.2,01.5,0670.3,31.0
2021-10-05T17:09:00Z,00000200,00000000,0001.09,0000.28,0000.21,0000.30,-000.07,0000.53,-000.05,-000.05,-000.33,17.8,24.1,02.2,01.5,0670.3,30.9
2021-10-05T17:10:00Z,00000200,00000000,0000.74,0000.15,0000.35,0000.03,0000.10,0000.18,0000.66,0000.68,0000.47,17.8,24.1,02.2,01.5,0670.3,30.9
2021-10-05T17:11:00Z,00000200,00000000,0001.07,0000.19,0000.31,0000.74,0000.18,0000.33,0000.24,0000.04,0000.56,17.7,24.1,02.2,01.5,0670.3,30.9
2021-10-05T17:12:00Z,00000200,00000000,0000.92,0000.26,0000.30,0000.28,-000.16,0000.16,0000.07,0000.35,0000.19,17.7,24.1,02.2,01.5,0670.3,30.9
2021-10-05T17:13:00Z,00000200,00000000,0000.80,0000.29,0000.08,0000.55,-000.10,0000.01,0000.36,0000.06,-000.04,17.7,24.1,02.2,01.5,0670.3,30.9
2021-10-05T17:14:00Z,00000200,00000000,0001.31,0000.49,0000.11,-000.07,-000.13,0000.24,0000.51,0000.31,0000.52,17.7,24.0,02.1,01.4,0670.3,30.9
2021-10-05T17:15:00Z,00000200,00000000,0000.94,0000.37,0000.06,-000.09,-000.04,0000.04,0000.51,0000.54,0000.00,17.7,24.0,02.1,01.4,0670.3,30.9
2021-10-05T17:16:00Z,00000200,00000000,0001.14,0000.37,-000.12,0000.16,0000.34,0000.10,-000.04,0000.19,0000.43,17.7,24.1,02.0,01.4,0670.3,30.9
2021-10-05T17:17:00Z,00000200,01000000,0000.80,0000.18,-000.01,0000.49,0000.03,0000.35,-000.26,-000.47,-000.43,17.8,24.1,02.0,01.4,0670.3,31.0
2021-10-05T17:18:00Z,00000200,00000000,0000.33,0000.26,0000.18,-000.36,0000.10,0000.09,0000.33,0000.33,0000.23,17.9,24.1,01.9,01.3,0670.4,31.0
2021-10-05T17:19:00Z,00000200,01000000,0000.81,0000.34,0000.14,-000.49,0000.12,0000.44,-000.25,-000.10,0000.29,17.9,24.2,01.9,01.3,0670.4,31.0
2021-10-05T17:20:00Z,00000200,00000000,0001.67,0000.43,0000.19,0000.42,-000.33,0000.12,0000.24,0000.22,0000.05,17.9,24.2,01.9,01.3,0670.4,31.0
2021-10-05T17:21:00Z,00000200,00000000,0000.82,0000.29,0000.37,-000.03,-000.00,0000.40,0000.27,0000.16,0000.34,17.9,24.1,01.8,01.3,0670.4,31.0
2021-10-05T17:22:00Z,00000200,01000000,0001.03,0000.46,0000.17,0000.21,-000.13,0000.35,0000.28,0000.18,-000.09,17.8,24.1,01.8,01.3,0670.4,30.9
2021-10-05T17:23:00Z,00000200,01000000,0000.61,0001.13,0000.39,0000.40,0000.05,0000.18,0001.97,0001.81,0001.21,17.8,24.1,01.8,01.2,0670.4,30.9
2021-10-05T17:24:00Z,00000200,01000000,0001.59,0000.58,0000.56,0000.56,0000.36,0000.25,0007.72,0007.28,0005.69,17.8,24.1,01.8,01.2,0670.4,30.9
2021-10-05T17:25:00Z,00000200,01000000,0000.79,0000.52,0000.16,0000.07,0000.02,0000.18,0001.82,0001.53,0001.46,17.7,24.1,01.8,01.2,0670.4,30.9
2021-10-05T17:26:00Z,00000200,01000000,0001.09,-000.06,0000.44,0000.50,0000.17,0000.40,0000.18,0000.11,0000.23,17.7,24.1,01.7,01.1,0670.4,30.9
2021-10-05T17:27:00Z,00000200,01000000,0001.21,0000.38,-000.02,0000.09,-000.07,0000.00,0000.12,-000.23,0000.15,17.7,24.1,01.6,01.1,0670.4,30.9
2021-10-05T17:28:00Z,00000200,01000000,0000.86,0000.54,0000.05,0000.30,-000.20,0000.18,0000.00,0000.45,-000.10,17.7,24.0,01.6,01.1,0670.4,30.9
2021-10-05T17:29:00Z,00000200,01000000,0000.59,0000.36,0000.11,-000.21,0000.24,0000.28,0000.36,0000.38,0000.49,17.7,24.0,01.7,01.1,0670.4,30.9
2021-10-05T17:30:00Z,00000200,01000000,0000.48,0000.16,0000.03,-000.05,0000.09,0000.35,0000.81,0000.91,0000.80,17.7,24.0,01.6,01.1,0670.4,30.9
2021-10-05T17:31:00Z,00000200,01000000,0001.20,0000.43,0000.02,0000.05,0000.20,0000.54,0000.74,0000.86,0000.41,17.7,24.1,01.8,01.2,0670.4,30.9
2021-10-05T17:32:00Z,00000200,01000000,0000.77,0000.31,0000.44,-000.44,-000.26,0000.20,-000.04,0000.09,0000.31,17.8,24.1,01.7,01.1,0670.4,31.0
2021-10-05T17:33:00Z,00000200,01000000,0000.98,0000.30,0000.37,0000.04,-000.10,0000.47,0000.39,0000.23,0000.09,17.9,24.1,01.6,01.1,0670.4,31.0
2021-10-05T17:34:00Z,00000200,01000000,0001.64,0000.24,0000.34,0000.41,0000.22,0000.16,0000.09,-000.29,0000.09,18.0,24.2,01.5,01.0,0670.4,31.0
2021-10-05T17:35:00Z,00000200,01000000,0001.33,0000.32,0000.25,0000.26,-000.04,-000.21,0000.40,0000.64,0000.34,18.0,24.2,01.5,01.0,0670.4,31.0
2021-10-05T17:36:00Z,00000200,01000000,0001.16,0000.50,0000.41,0000.31,0000.03,0000.19,0000.63,0000.46,0000.42,18.0,24.2,01.6,01.1,0670.4,31.0
2021-10-05T17:37:00Z,00000200,01000000,0001.23,0000.53,0000.22,0000.64,0000.08,0000.06,0000.15,0000.31,0000.20,17.9,24.2,01.6,01.1,0670.4,30.9
2021-10-05T17:38:00Z,00000200,01000000,0000.32,0000.24,0000.48,0000.05,0000.09,0000.12,0000.16,-000.06,0000.22,17.9,24.2,01.6,01.1,0670.4,31.0
2021-10-05T17:39:00Z,00000200,01000000,0000.38,0000.70,0000.37,0000.55,-000.13,0000.43,0000.21,0000.27,-000.06,17.9,24.2,01.6,01.1,0670.4,31.0
2021-10-05T17:40:00Z,00000200,01000000,0001.50,0000.51,0000.48,0000.70,0000.06,0000.28,0000.08,0000.08,-000.04,17.8,24.1,01.5,01.0,0670.5,30.9
2021-10-05T17:41:00Z,00000200,01000000,0000.73,0000.38,0000.27,0000.71,0000.02,0000.25,0000.16,0000.48,0000.50,17.8,24.1,01.6,01.1,0670.5,30.9
2021-10-05T17:42:00Z,00000200,01000000,0001.04,0000.63,0000.38,0000.08,-000.01,0000.09,0000.42,0000.10,0000.38,17.8,24.1,01.5,01.0,0670.5,30.9
2021-10-05T17:43:00Z,00000200,01000000,0001.69,0000.31,0000.36,0000.23,0000.03,0000.19,0000.69,0000.48,0000.42,17.7,24.1,01.5,01.0,0670.5,30.9
2021-10-05T17:44:00Z,00000200,01000000,0000.52,0000.15,0000.31,0000.19,0000.10,0000.46,0000.03,0000.53,0000.30,17.7,24.1,01.5,01.0,0670.5,30.9
2021-10-05T17:45:00Z,00000200,01000000,0000.60,0000.63,-000.16,0000.26,-000.05,0000.42,0000.32,0000.25,-000.00,17.7,24.1,01.5,01.0,0670.5,31.0
2021-10-05T17:46:00Z,00000200,01000000,0000.95,0000.45,0000.31,0001.06,-000.06,0000.14,0000.57,0000.27,0000.43,17.8,24.1,01.5,01.0,0670.5,31.0
2021-10-05T17:47:00Z,00000200,01000000,0001.80,-000.05,0000.13,-000.06,-000.10,0000.11,0000.04,-000.16,0000.25,17.9,24.1,01.4,01.0,0670.5,31.0
2021-10-05T17:48:00Z,00000200,01000000,0001.52,0000.34,0000.33,0000.35,0000.12,0000.53,-000.06,0000.34,-000.17,17.9,24.2,01.4,01.0,0670.5,31.0
2021-10-05T17:49:00Z,00000200,01000000,0000.86,0000.52,0000.36,0000.19,0000.01,0000.33,-000.27,-000.21,0000.12,17.9,24.2,01.4,01.0,0670.5,31.0
2021-10-05T17:50:00Z,00000200,01000000,0001.11,0000.25,0000.34,0000.39,-000.13,0000.45,0000.41,0000.26,-000.22,17.9,24.2,01.2,00.8,0670.5,31.0
2021-10-05T17:51:00Z,00000200,01000000,0000.90,0000.62,0000.72,0000.34,0000.04,0000.28,-000.07,-000.03,0000.13,17.8,24.2,01.3,00.9,0670.5,31.0
2021-10-05T17:52:00Z,00000200,01000000,0001.30,0000.34,0000.33,0000.80,0000.13,0000.37,-000.08,-000.22,-000.15,17.8,24.2,01.2,00.8,0670.5,31.0
2021-10-05T17:53:00Z,00000200,01000000,0000.80,0000.36,-000.08,0000.17,-000.23,0000.43,0000.12,0000.08,0000.63,17.8,24.1,01.2,00.8,0670.5,31.0
2021-10-05T17:54:00Z,00000200,01000000,0000.61,0000.62,0000.11,0000.91,0000.01,0000.17,0000.49,0000.37,-000.17,17.7,24.1,01.0,00.7,0670.5,31.0
2021-10-05T17:55:00Z,00000200,01000000,0001.46,0000.41,0000.12,0000.02,-000.26,0000.03,0000.17,0000.04,0000.12,17.7,24.1,01.2,00.8,0670.5,30.9
2021-10-05T17:56:00Z,00000200,01000000,0001.25,0000.95,0000.30,0000.18,0000.31,0000.60,0000.31,0000.40,0000.15,17.7,24.1,01.2,00.8,0670.5,30.9
2021-10-05T17:57:00Z,00000200,41000000,,,,,,,0000.40,0001.04,0000.34,17.7,24.1,01.6,01.1,0670.4,30.9
2021-10-05T17:58:00Z,00000200,61000000,,,,,,,-000.15,-000.95,0000.05,17.3,24.2,01.3,00.8,0669.5,30.9
2021-10-05T17:59:00Z,00000200,21000000,,,,,,,-000.25,0000.04,-000.15,17.3,24.3,01.2,00.8,0669.5,30.9
